SCP
0 0 0 0 0 0 0 0 0 0 0 0 0 0 0 0 0 0 0 0 0 0 0 0 0 0 0 0 0 0 0 0 0 0 0 0 0 0
0 0 0 0 0 0 0 0 0 0 0 0 0 0 0 0 0 0 0 0 0 0 0 0 0 0 0 0 0 0 0 0 0 0 0 0 0 0
0 0 0 0 0 0 0 0 0 0 0 0 0 0 0 0 0 0 0 0 0 0 0 0 0 0 0 0 0 0 0 0 0 0 0 0 0 0
0 0 0 0 0 0 0 0 0 0 0 0 0 0 0 0 0 0 0 0 0 0 0 0 0 0 0 0 0 0 0 0 0 0 0 0 0 0
0 0 0 0 0 0 0 0 0 0 0 0 0 0 0 0 0 0 0 0 0 0 0 0 0 0 0 0 0 0 0 0 0 0 0 0 0 0
0 0 0 0 0 0 0 0 0 0 0 0 0 0 0 0 0 0 0 0 0 0 0 0 0 0 0 0 0 0 0 0 0 0 0 0 0 0
0 0 0 0 0 0 0 0 0 0 0 0 0 0 0 0 0 0 0 0 0 0 0 0 0 0 0 0 0 0 0 0 0 0 0 0 0 0
0 0 0 0 0 0 0 0 0 0 0 0 0 0 0 0 0 0 0 0 0 0 0 0 0 0 0 0 0 0 0 0 0 0 0 0 0 0
0 0 0 0 0 0 0 0 0 0 0 0 0 0 0 0 0 0 0 0 0 0 0 0 0 0 0 0 0 0 0 0 0 0 0 0 0 0
0 0 0 0 0 0 0 0 0 0 0 0 0 0 0 0 0 0 0 0 0 0 0 0 0 0 0 0 0 0 0 0 0 0 0 0 0 0
0 0 0 0 0 0 0 0 0 0 0 0 0 0 0 0 0 0 0 0 0 0 0 0 0 0 0 0 0 0 0 0 0 0 0 0 0 0
0 0 0 0 0 0 0 0 0 0 0 0 0 0 0 0 0 0 0 0 0 0 0 0 0 0 0 0 0 0 0 0 0 0 0 0 0 0
0 0 0 0 0 0 0 0 0 0 0 0 0 0 0 0 0 0 0 0 0 0 0 0 0 0 0 0 0 0 0 0 0 0 0 0 0 0
0 0 0 0 0 0 0 0 0 0 0 0 0 0 0 0 0 0 0 0 0 0 0 0 0 0 0 0 0 0 0 0 0 0 0 0 0 0
0 0 0 0 0 0 0 0 0 0 0 0 0 0 0 0 0 0 0 0 0 0 0 0 0 0 0 0 0 0 0 0 0 0 0 0 0 0
0 0 0 0 0 0 0 0 0 0 0 0 0 0 0 0 0 0 0 0 0 0 0 0 0 0 0 0 0 0 0 0 0 0 0 0 0 0
0 0 0 0 0 0 0 0 0 0 0 0 0 0 0 0 0 0 0 0 0 0 0 0 0 0 0 0 0 0 0 0 0 0 0 0 0 0
0 0 0 0 0 0 0 0 0 0 0 0 0 0 0 0 0 0 0 0 0 0 0 0 0 0 0 0 0 0 0 0 0 0 0 0 0 0
0 0 0 0 0 0 0 0 0 0 0 0 0 0 0 0 0 0 0 0 0 0 0 0 0 0 0 0 0 0 0 0 0 0 0 0 0 0
0 0 0 0 0 0 0 0 0 0 0 0 0 0 0 0 0 0 0 0 0 0 0 0 0 0 0 0 0 0 0 0 0 0 0 0 0 0
0 0 0 0 0 0 0 0 0 0 0 0 0 0 0 0 0 0 0 0 0 0 0 0 0 0 0 0 0 0 0 0 0 0 0 0 0 0
0 0 0 0 0 0 0 0 0 0 0 0 0 0 0 0 0 0 0 0 0 0 0 0 0 0 0 0 0 0 -0 0 0 0 0 0 0 0
0 0 0 0 0 0 0 0 0 0 0 0 0 0 0 0 0 0 0 0 0 0 0 0 0 0 0 0 0 0 0 0 0 0 0 0 0 0
Wind_Speed_500mb
36 38 41 42 44 46 48 50 54 68 83 76 70 67 61 59 57 54 52 49 48 48 47 49 50 50 49 48 48 50 52 56 58 59 59 59 57 56
35 37 38 38 40 42 44 47 51 59 78 81 80 73 63 60 55 52 47 48 46 46 47 48 49 48 49 52 53 53 57 61 63 65 62 60 59 58
32 36 37 38 42 43 45 48 53 56 71 82 75 71 68 63 58 52 49 47 48 45 44 45 45 46 48 52 56 59 59 58 64 65 69 66 61 64
33 37 38 40 44 46 49 53 55 56 63 78 72 67 65 61 61 60 53 48 45 40 35 33 37 42 46 51 57 59 60 64 67 67 73 74 77 69
34 37 39 43 47 49 53 56 55 54 54 62 69 64 62 62 64 60 51 42 35 35 36 40 42 43 47 51 55 60 63 64 67 75 73 70 70 70
35 37 40 44 48 49 52 52 49 50 48 51 57 60 60 57 58 57 51 37 36 41 44 41 41 45 44 51 51 55 59 58 66 71 70 67 72 76
34 36 39 41 43 44 48 46 45 46 48 50 55 58 58 54 52 49 48 46 44 43 53 50 53 55 51 51 52 51 51 56 59 62 58 64 63 63
36 35 37 37 38 40 40 39 39 45 48 51 54 59 59 57 52 47 50 54 62 56 60 64 58 64 59 57 52 52 54 56 55 54 56 56 60 68
36 38 36 36 38 39 39 38 37 37 39 44 50 51 54 54 53 53 51 53 60 62 65 73 64 65 61 54 50 50 53 56 52 54 53 51 52 57
35 36 37 37 36 39 39 40 40 42 43 46 49 49 45 44 44 52 57 65 69 71 62 76 68 70 57 50 46 49 54 51 50 52 51 50 49 46
33 33 35 36 37 38 41 45 47 47 48 48 43 38 37 42 46 54 60 65 72 65 52 60 63 60 62 56 48 48 42 51 47 44 46 47 44 53
29 29 32 34 35 39 45 49 53 53 46 39 39 42 41 38 37 43 54 64 68 72 43 56 63 60 55 53 42 45 42 44 43 37 38 39 38 35
27 28 30 33 38 43 46 48 45 45 41 41 44 45 43 41 42 43 44 49 52 54 56 57 66 65 63 71 62 47 41 39 36 28 30 29 32 34
28 32 34 37 41 44 45 41 37 38 42 43 39 38 41 44 43 40 37 39 41 52 56 51 54 54 60 61 56 47 45 43 35 26 25 32 33 35
34 35 37 40 42 41 37 34 34 37 38 37 36 40 43 45 45 45 41 42 45 44 43 41 37 43 44 53 53 51 51 50 35 29 27 29 35 41
34 36 38 40 39 35 32 33 32 32 33 35 39 40 41 42 45 45 49 55 54 46 38 35 34 32 40 38 45 49 45 44 37 32 27 28 32 27
34 35 37 36 33 30 29 29 29 28 33 37 38 40 39 42 43 44 48 48 49 49 50 46 34 35 35 32 39 36 37 43 36 27 26 25 34 26
34 35 35 33 31 30 29 30 32 34 36 38 38 38 40 41 45 43 44 46 47 41 45 52 50 41 42 39 29 26 27 35 35 27 26 28 31 22
31 32 32 32 29 29 30 33 32 34 40 39 39 37 40 40 42 44 44 44 45 45 50 52 48 34 41 44 44 29 27 28 32 33 28 36 35 30
30 31 28 29 28 30 31 34 36 37 39 36 36 37 37 37 43 43 41 42 46 49 54 49 44 36 38 45 51 42 27 27 27 30 28 34 34 30
30 31 29 28 29 31 32 35 38 39 40 40 39 33 34 36 42 42 43 43 45 47 49 49 47 40 38 35 34 39 33 29 24 29 27 29 39 37
27 28 27 28 30 32 33 36 39 41 42 41 37 35 32 36 42 41 41 47 47 44 43 44 46 43 34 27 31 34 37 34 23 22 26 22 30 33
26 27 26 26 28 31 34 36 38 39 42 44 37 36 36 39 41 42 41 43 45 46 47 49 48 42 40 35 31 32 32 30 27 20 25 26 23 26
Wind_Direction_500mb
305 303 301 303 301 301 299 298 295 290 300 306 309 318 318 316 316 316 312 307 298 291 283 279 281 283 286 289 275 269 267 264 262 259 262 264 263 263
309 308 308 309 305 304 304 302 297 293 288 303 310 315 318 316 318 316 309 304 301 296 291 284 281 280 280 286 286 283 278 267 264 256 258 260 261 260
309 307 309 308 306 305 304 301 299 299 294 302 308 315 316 316 318 316 313 310 305 304 299 291 285 285 285 285 286 285 284 279 265 263 262 255 255 260
307 305 309 306 305 306 303 301 300 301 301 302 309 314 314 318 320 319 317 314 314 310 304 293 293 289 290 287 286 285 283 282 278 275 267 262 255 249
306 306 308 305 307 306 305 303 303 301 301 304 309 314 316 320 321 320 316 309 306 306 301 297 297 295 295 295 288 287 285 282 280 275 275 270 259 259
305 305 306 306 306 308 306 306 307 305 307 307 308 312 315 318 320 321 314 312 305 308 303 297 302 297 294 296 295 291 287 287 278 273 268 269 264 258
302 304 305 306 308 308 308 310 310 309 307 306 306 310 311 316 318 318 312 312 307 304 306 311 308 307 295 298 292 298 289 287 285 272 268 269 257 258
303 304 304 306 305 305 305 306 309 309 309 307 307 307 310 314 317 310 307 309 309 310 309 305 302 299 299 298 293 295 301 297 284 276 269 266 263 253
301 303 305 306 310 311 311 311 310 310 309 306 304 306 306 311 315 314 310 304 301 306 306 302 305 302 303 298 296 296 300 296 286 274 271 266 268 252
299 301 303 311 313 311 312 314 312 309 306 301 300 299 299 302 301 301 302 301 299 299 305 301 305 304 308 302 300 302 303 301 286 270 265 263 262 258
295 297 306 308 308 310 312 309 308 308 303 303 298 296 293 291 291 293 295 299 301 300 300 300 305 301 303 308 306 300 294 304 300 273 258 259 260 253
291 297 303 306 309 306 303 306 306 307 308 307 308 311 314 307 307 298 296 298 302 311 308 302 305 303 300 295 303 308 305 306 301 283 256 253 253 239
290 297 300 302 301 302 304 303 303 308 313 312 312 313 316 317 312 307 302 299 303 302 309 308 303 298 293 292 296 303 317 305 305 284 263 256 236 228
292 296 298 301 304 305 305 306 305 303 308 310 312 317 321 320 318 316 311 307 301 299 307 304 300 299 289 289 297 300 313 309 305 281 267 238 233 223
288 296 301 302 305 305 302 300 305 306 307 309 317 322 324 324 323 320 314 309 300 307 316 312 310 296 301 290 303 297 305 306 301 288 272 265 244 223
288 294 298 302 302 300 300 300 301 303 305 312 317 321 326 328 328 330 332 331 324 325 326 335 326 306 305 301 296 294 295 293 293 292 286 267 232 218
283 290 294 294 292 289 291 297 300 304 306 311 318 323 328 330 334 338 335 332 333 327 331 331 338 324 318 303 302 296 295 291 292 291 279 251 209 213
280 288 292 295 297 296 299 305 306 309 311 314 317 320 323 328 329 335 331 335 335 332 329 324 338 333 337 336 331 320 314 302 294 285 266 232 200 209
283 291 293 294 297 298 302 302 305 307 308 310 313 318 322 324 327 330 335 330 327 331 320 328 334 336 332 329 329 322 315 311 298 285 267 237 212 207
285 286 292 299 298 298 301 304 308 309 309 306 307 311 318 320 322 326 328 327 328 324 319 329 337 329 324 314 316 312 323 315 295 282 267 239 237 227
285 287 293 297 301 302 301 301 307 308 310 302 305 309 315 316 319 321 322 325 324 326 324 330 334 328 316 307 316 312 316 316 297 279 272 249 237 233
286 289 294 298 302 301 300 300 302 305 306 303 304 311 314 312 318 320 316 316 324 322 320 324 330 332 327 312 311 310 312 310 301 268 261 249 246 233
281 286 291 295 299 298 295 296 299 303 306 307 303 308 306 309 317 314 312 314 319 324 329 328 327 328 323 318 307 305 312 311 306 293 258 251 248 242
Wind_Speed_850mb
36 38 41 42 44 46 48 50 54 68 83 76 70 67 61 59 57 54 52 49 48 48 47 49 50 50 49 48 48 50 52 56 58 59 59 59 57 56
35 37 38 38 40 42 44 47 51 59 78 81 80 73 63 60 55 52 47 48 46 46 47 48 49 48 49 52 53 53 57 61 63 65 62 60 59 58
32 36 37 38 42 43 45 48 53 56 71 82 75 71 68 63 58 52 49 47 48 45 44 45 45 46 48 52 56 59 59 58 64 65 69 66 61 64
33 37 38 40 44 46 49 53 55 56 63 78 72 67 65 61 61 60 53 48 45 40 35 33 37 42 46 51 57 59 60 64 67 67 73 74 77 69
34 37 39 43 47 49 53 56 55 54 54 62 69 64 62 62 64 60 51 42 35 35 36 40 42 43 47 51 55 60 63 64 67 75 73 70 70 70
35 37 40 44 48 49 52 52 49 50 48 51 57 60 60 57 58 57 51 37 36 41 44 41 41 45 44 51 51 55 59 58 66 71 70 67 72 76
34 36 39 41 43 44 48 46 45 46 48 50 55 58 58 54 52 49 48 46 44 43 53 50 53 55 51 51 52 51 51 56 59 62 58 64 63 63
36 35 37 37 38 40 40 39 39 45 48 51 54 59 59 57 52 47 50 54 62 56 60 64 58 64 59 57 52 52 54 56 55 54 56 56 60 68
36 38 36 36 38 39 39 38 37 37 39 44 50 51 54 54 53 53 51 53 60 62 65 73 64 65 61 54 50 50 53 56 52 54 53 51 52 57
35 36 37 37 36 39 39 40 40 42 43 46 49 49 45 44 44 52 57 65 69 71 62 76 68 70 57 50 46 49 54 51 50 52 51 50 49 46
33 33 35 36 37 38 41 45 47 47 48 48 43 38 37 42 46 54 60 65 72 65 52 60 63 60 62 56 48 48 42 51 47 44 46 47 44 53
29 29 32 34 35 39 45 49 53 53 46 39 39 42 41 38 37 43 54 64 68 72 43 56 63 60 55 53 42 45 42 44 43 37 38 39 38 35
27 28 30 33 38 43 46 48 45 45 41 41 44 45 43 41 42 43 44 49 52 54 56 57 66 65 63 71 62 47 41 39 36 28 30 29 32 34
28 32 34 37 41 44 45 41 37 38 42 43 39 38 41 44 43 40 37 39 41 52 56 51 54 54 60 61 56 47 45 43 35 26 25 32 33 35
34 35 37 40 42 41 37 34 34 37 38 37 36 40 43 45 45 45 41 42 45 44 43 41 37 43 44 53 53 51 51 50 35 29 27 29 35 41
34 36 38 40 39 35 32 33 32 32 33 35 39 40 41 42 45 45 49 55 54 46 38 35 34 32 40 38 45 49 45 44 37 32 27 28 32 27
34 35 37 36 33 30 29 29 29 28 33 37 38 40 39 42 43 44 48 48 49 49 50 46 34 35 35 32 39 36 37 43 36 27 26 25 34 26
34 35 35 33 31 30 29 30 32 34 36 38 38 38 40 41 45 43 44 46 47 41 45 52 50 41 42 39 29 26 27 35 35 27 26 28 31 22
31 32 32 32 29 29 30 33 32 34 40 39 39 37 40 40 42 44 44 44 45 45 50 52 48 34 41 44 44 29 27 28 32 33 28 36 35 30
30 31 28 29 28 30 31 34 36 37 39 36 36 37 37 37 43 43 41 42 46 49 54 49 44 36 38 45 51 42 27 27 27 30 28 34 34 30
30 31 29 28 29 31 32 35 38 39 40 40 39 33 34 36 42 42 43 43 45 47 49 49 47 40 38 35 34 39 33 29 24 29 27 29 39 37
27 28 27 28 30 32 33 36 39 41 42 41 37 35 32 36 42 41 41 47 47 44 43 44 46 43 34 27 31 34 37 34 23 22 26 22 30 33
26 27 26 26 28 31 34 36 38 39 42 44 37 36 36 39 41 42 41 43 45 46 47 49 48 42 40 35 31 32 32 30 27 20 25 26 23 26
Wind_Direction_850mb
305 303 301 303 301 301 299 298 295 290 300 306 309 318 318 316 316 316 312 307 298 291 283 279 281 283 286 289 275 269 267 264 262 259 262 264 263 263
309 308 308 309 305 304 304 302 297 293 288 303 310 315 318 316 318 316 309 304 301 296 291 284 281 280 280 286 286 283 278 267 264 256 258 260 261 260
309 307 309 308 306 305 304 301 299 299 294 302 308 315 316 316 318 316 313 310 305 304 299 291 285 285 285 285 286 285 284 279 265 263 262 255 255 260
307 305 309 306 305 306 303 301 300 301 301 302 309 314 314 318 320 319 317 314 314 310 304 293 293 289 290 287 286 285 283 282 278 275 267 262 255 249
306 306 308 305 307 306 305 303 303 301 301 304 309 314 316 320 321 320 316 309 306 306 301 297 297 295 295 295 288 287 285 282 280 275 275 270 259 259
305 305 306 306 306 308 306 306 307 305 307 307 308 312 315 318 320 321 314 312 305 308 303 297 302 297 294 296 295 291 287 287 278 273 268 269 264 258
302 304 305 306 308 308 308 310 310 309 307 306 306 310 311 316 318 318 312 312 307 304 306 311 308 307 295 298 292 298 289 287 285 272 268 269 257 258
303 304 304 306 305 305 305 306 309 309 309 307 307 307 310 314 317 310 307 309 309 310 309 305 302 299 299 298 293 295 301 297 284 276 269 266 263 253
301 303 305 306 310 311 311 311 310 310 309 306 304 306 306 311 315 314 310 304 301 306 306 302 305 302 303 298 296 296 300 296 286 274 271 266 268 252
299 301 303 311 313 311 312 314 312 309 306 301 300 299 299 302 301 301 302 301 299 299 305 301 305 304 308 302 300 302 303 301 286 270 265 263 262 258
295 297 306 308 308 310 312 309 308 308 303 303 298 296 293 291 291 293 295 299 301 300 300 300 305 301 303 308 306 300 294 304 300 273 258 259 260 253
291 297 303 306 309 306 303 306 306 307 308 307 308 311 314 307 307 298 296 298 302 311 308 302 305 303 300 295 303 308 305 306 301 283 256 253 253 239
290 297 300 302 301 302 304 303 303 308 313 312 312 313 316 317 312 307 302 299 303 302 309 308 303 298 293 292 296 303 317 305 305 284 263 256 236 228
292 296 298 301 304 305 305 306 305 303 308 310 312 317 321 320 318 316 311 307 301 299 307 304 300 299 289 289 297 300 313 309 305 281 267 238 233 223
288 296 301 302 305 305 302 300 305 306 307 309 317 322 324 324 323 320 314 309 300 307 316 312 310 296 301 290 303 297 305 306 301 288 272 265 244 223
288 294 298 302 302 300 300 300 301 303 305 312 317 321 326 328 328 330 332 331 324 325 326 335 326 306 305 301 296 294 295 293 293 292 286 267 232 218
283 290 294 294 292 289 291 297 300 304 306 311 318 323 328 330 334 338 335 332 333 327 331 331 338 324 318 303 302 296 295 291 292 291 279 251 209 213
280 288 292 295 297 296 299 305 306 309 311 314 317 320 323 328 329 335 331 335 335 332 329 324 338 333 337 336 331 320 314 302 294 285 266 232 200 209
283 291 293 294 297 298 302 302 305 307 308 310 313 318 322 324 327 330 335 330 327 331 320 328 334 336 332 329 329 322 315 311 298 285 267 237 212 207
285 286 292 299 298 298 301 304 308 309 309 306 307 311 318 320 322 326 328 327 328 324 319 329 337 329 324 314 316 312 323 315 295 282 267 239 237 227
285 287 293 297 301 302 301 301 307 308 310 302 305 309 315 316 319 321 322 325 324 326 324 330 334 328 316 307 316 312 316 316 297 279 272 249 237 233
286 289 294 298 302 301 300 300 302 305 306 303 304 311 314 312 318 320 316 316 324 322 320 324 330 332 327 312 311 310 312 310 301 268 261 249 246 233
281 286 291 295 299 298 295 296 299 303 306 307 303 308 306 309 317 314 312 314 319 324 329 328 327 328 323 318 307 305 312 311 306 293 258 251 248 242